Home > Weather > Toccoa > Past weeks

Flag for USA Past Weather in Toccoa, Georgia, USA — Yesterday and Last 2 Weeks

Now
84 °F

Sunny.


Feels Like: 84 °F
Forecast: 67 / 83 °F
Wind: 3 mph from North

Location: Clemson-Oconee County Airport

Current Time: May 27, 2016 at 6:18:17 PM

Latest Report: May 27, 2016 at 5:54 PM


Visibility: 10 mi

Pressure: 30.05 "Hg

Humidity: 45%

Dew Point: 60 °F

Location of ToccoaLocation

Past Weather in Toccoa — Graph

°F

Toccoa Temperature Yesterday

Maximum temperature yesterday: 88 °F (at 2:54 PM)
Minimum temperature yesterday: 66 °F (at 6:54 AM)
Average temperature yesterday: 76 °F

High & Low Weather Summary for the Past Weeks

 TemperatureHumidityPressure
High88 °F (May 26, 2:54 PM)93% (May 12, 8:54 PM)30.26 "Hg (May 12, 8:54 PM)
Low49 °F (May 15, 6:54 AM)22% (May 15, 4:54 PM)29.82 "Hg (May 14, 5:54 PM)
Average69 °F63%30.04 "Hg
* Reported May 12 4:54 PM — May 27 4:54 PM, Toccoa, Weather by CustomWeather, © 2016

Note: Actual official high and low records may vary slightly from our data, if they occured in-between our weather recording intervals... More about our weather records

Advertising

Toccoa Weather History for the Previous 24 Hours

Scroll right to see more
 ConditionsComfort  
Time TempWeatherWind HumidityBarometerVisibility
4:54 PM
Fri, May 27
84 °FSunny.5 mph43%30.06 "Hg10 mi
3:54 PM84 °FSunny.5 mph46%30.07 "Hg10 mi
2:54 PM83 °FScattered clouds.No wind48%30.09 "Hg10 mi
1:54 PM82 °FSunny.3 mph48%30.11 "Hg10 mi
12:54 PM81 °FPassing clouds.7 mph47%30.12 "Hg10 mi
11:54 AM80 °FPassing clouds.7 mph51%30.14 "Hg10 mi
10:54 AM79 °FSunny.5 mph54%30.14 "Hg10 mi
9:54 AM76 °FSunny.3 mph60%30.15 "Hg10 mi
8:54 AM73 °FPartly sunny.No wind71%30.14 "Hg10 mi
7:54 AM72 °FPartly sunny.3 mph78%30.13 "Hg10 mi
6:54 AM68 °FFog.No wind87%30.13 "Hg6 mi
5:54 AM68 °FPassing clouds.No wind90%30.11 "Hg7 mi
4:54 AM68 °FFog.No wind90%30.09 "Hg5 mi
3:54 AM69 °FClear.No wind87%30.09 "Hg8 mi
2:54 AM71 °FPassing clouds.No wind84%30.09 "Hg10 mi
1:54 AM70 °FPassing clouds.No wind90%30.09 "Hg10 mi
12:54 AM71 °FClear.7 mph87%30.09 "Hg7 mi
11:54 PM
Thu, May 26
72 °FClear.No wind84%30.09 "Hg10 mi
10:54 PM74 °FClear.No wind76%30.09 "Hg10 mi
9:54 PM75 °FPassing clouds.No wind74%30.09 "Hg10 mi
8:54 PM76 °FSunny.No wind69%30.09 "Hg10 mi
7:54 PM79 °FSunny.No wind62%30.08 "Hg10 mi
6:54 PM79 °FSunny.No wind60%30.06 "Hg10 mi
Weather by CustomWeather, © 2016

See weather overviewHow to use our weather pages